CW0608 Weather Reports


Display with metric or nautical units.
time (UTC)temp
F
wind
direction
speed
MPH
gust
MPH
rain 1hr
in
rain 24hr
in
rain mn
in
humidity
%
barometer
mb
20260506050804 71 174 6.0 18.0 0.00 0.00 0.00 58 1011.2
20260506044304 69 151 4.0 8.0 0.00 0.00 0.00 61 1011.3
20260506043805 69 185 3.0 10.0 0.00 0.00 0.00 61 1011.3
20260506041306 67 174 2.0 7.0 0.00 0.00 0.00 62 1011.2
20260506040815 67 157 3.0 7.0 0.00 0.00 0.00 62 1011.3
20260506040305 66 142 3.0 5.0 0.00 0.00 0.00 63 1011.4
20260506035804 66 152 2.0 3.0 0.00 0.00 0.00 63 1011.3
20260506035306 66 144 2.0 3.0 0.00 0.00 0.00 63 1011.3
20260506034305 66 159 2.0 5.0 0.00 0.00 0.00 63 1011.4
20260506031804 66 175 2.0 6.0 0.00 0.00 0.00 63 1011.3
20260506031304 65 155 2.0 3.0 0.00 0.00 0.00 64 1011.3
20260506030804 66 157 2.0 5.0 0.00 0.00 0.00 64 1011.3
20260506030304 65 156 1.0 5.0 0.00 0.00 0.00 64 1011.3
20260506024306 66 157 1.0 5.0 0.00 0.00 0.00 64 1011.4
20260506023804 66 158 2.0 3.0 0.00 0.00 0.00 65 1011.4
20260506022306 66 155 2.0 8.0 0.00 0.00 0.00 65 1011.5
20260506021805 66 148 1.0 3.0 0.00 0.00 0.00 67 1011.4
20260506021304 65 148 1.0 3.0 0.00 0.00 0.00 69 1011.4
20260506020804 65 144 0.0 0.0 0.00 0.00 0.00 70 1011.5
20260506020304 65 115 0.0 0.0 0.00 0.00 0.00 71 1011.4
20260506014806 66 114 0.0 0.0 0.00 0.00 0.00 71 1011.3
20260506012307 68 94 0.0 0.0 0.00 0.00 0.00 65 1011.1
20260506011804 68 96 0.0 2.0 0.00 0.00 0.00 64 1011.1
20260506005804 70 113 1.0 3.0 0.00 0.00 0.00 57 1010.8
20260506004805 73 137 2.0 5.0 0.00 0.00 0.00 51 1010.6
20260506003304 77 168 6.0 12.0 0.00 0.00 0.00 35 1010.4
20260506001305 78 176 5.0 14.0 0.00 0.00 0.00 33 1010.3
20260505235305 79 193 7.0 17.0 0.00 0.00 0.00 33 1010.0
20260505234805 78 168 6.0 16.0 0.00 0.00 0.00 33 1009.9
20260505230804 80 169 7.0 13.0 0.00 0.00 0.00 33 1009.7
20260505225804 80 187 5.0 17.0 0.00 0.00 0.00 33 1009.8
20260505224304 80 206 7.0 18.0 0.00 0.00 0.00 33 1009.7
20260505223804 80 166 8.0 23.0 0.00 0.00 0.00 32 1009.8
20260505220804 81 173 8.0 20.0 0.00 0.00 0.00 30 1010.0
20260505215806 82 192 8.0 22.0 0.00 0.00 0.00 30 1010.0
20260505215305 82 172 8.0 22.0 0.00 0.00 0.00 30 1009.9
20260505214305 82 192 5.0 22.0 0.00 0.00 0.00 30 1009.9
20260505211804 84 173 6.0 18.0 0.00 0.00 0.00 31 1009.6
20260505210304 83 175 6.0 20.0 0.00 0.00 0.00 31 1009.7
20260505205805 83 174 9.0 20.0 0.00 0.00 0.00 31 1009.8
20260505204305 84 148 7.0 20.0 0.00 0.00 0.00 29 1009.9
20260505203304 85 176 7.0 20.0 0.00 0.00 0.00 30 1009.7
20260505201804 83 149 7.0 30.0 0.00 0.00 0.00 31 1009.7
20260505201304 84 158 7.0 15.0 0.00 0.00 0.00 32 1009.9
20260505200805 84 169 5.0 17.0 0.00 0.00 0.00 31 1009.8
20260505200304 84 157 10.0 20.0 0.00 0.00 0.00 31 1009.9
20260505193304 84 203 5.0 20.0 0.00 0.00 0.00 33 1010.1
20260505191304 84 174 9.0 22.0 0.00 0.00 0.00 34 1010.3
20260505185305 84 184 6.0 20.0 0.00 0.00 0.00 34 1010.5
20260505184806 84 192 9.0 22.0 0.00 0.00 0.00 33 1010.5
20260505184304 84 229 7.0 22.0 0.00 0.00 0.00 33 1010.6
20260505181304 84 182 9.0 20.0 0.00 0.00 0.00 32 1011.1
20260505180304 84 154 7.0 20.0 0.00 0.00 0.00 32 1011.1
20260505175806 83 175 6.0 15.0 0.00 0.00 0.00 38 1011.2
20260505173804 83 147 6.0 20.0 0.00 0.00 0.00 35 1011.4
20260505173304 83 173 9.0 20.0 0.00 0.00 0.00 33 1011.5
20260505172804 83 193 5.0 16.0 0.00 0.00 0.00 32 1011.5
20260505172306 83 172 7.0 16.0 0.00 0.00 0.00 33 1011.5
20260505170804 82 143 8.0 18.0 0.00 0.00 0.00 36 1011.8
20260505170304 82 155 5.0 18.0 0.00 0.00 0.00 40 1011.8
20260505165804 82 157 8.0 18.0 0.00 0.00 0.00 39 1011.9
20260505164304 82 157 3.0 9.0 0.00 0.00 0.00 43 1012.0
20260505162306 80 156 5.0 15.0 0.00 0.00 0.00 47 1012.2
20260505161304 80 155 5.0 15.0 0.00 0.00 0.00 50 1012.4
20260505160304 79 173 6.0 14.0 0.00 0.00 0.00 48 1012.5
20260505152305 77 152 3.0 12.0 0.00 0.00 0.00 49 1012.6
20260505151805 77 167 5.0 13.0 0.00 0.00 0.00 47 1012.6
20260505150804 76 159 6.0 15.0 0.00 0.00 0.00 49 1012.5
20260505150304 75 151 9.0 15.0 0.00 0.00 0.00 50 1012.6
20260505140304 72 153 4.0 9.0 0.00 0.00 0.00 55 1012.5
20260505123804 67 201 2.0 6.0 0.00 0.00 0.00 60 1013.0
20260505123304 67 211 1.0 5.0 0.00 0.00 0.00 60 1013.0
20260505122306 67 198 1.0 7.0 0.00 0.00 0.00 60 1013.0
20260505121804 66 206 2.0 6.0 0.00 0.00 0.00 62 1013.1
20260505120804 66 227 1.0 5.0 0.00 0.00 0.00 63 1013.0
20260505120304 65 199 2.0 3.0 0.00 0.00 0.00 63 1013.0
20260505113304 62 171 3.0 8.0 0.00 0.00 0.00 66 1012.7
20260505112305 62 126 2.0 6.0 0.00 0.00 0.00 66 1012.6
20260505111304 61 197 2.0 6.0 0.00 0.00 0.00 69 1012.5
20260505110304 60 134 3.0 8.0 0.00 0.00 0.00 71 1012.4
20260505100805 54 219 0.0 5.0 0.00 0.00 0.00 79 1011.9
20260505100305 55 222 1.0 5.0 0.00 0.00 0.00 78 1011.8
20260505094804 56 191 1.0 5.0 0.00 0.00 0.00 77 1011.8
20260505093304 54 226 3.0 7.0 0.00 0.00 0.00 85 1011.7
20260505092805 52 200 1.0 7.0 0.00 0.00 0.00 87 1011.7
20260505092305 52 195 1.0 3.0 0.00 0.00 0.00 88 1011.8
20260505091805 51 191 0.0 0.0 0.00 0.00 0.00 90 1011.8
20260505090804 51 227 0.0 0.0 0.00 0.00 0.00 90 1011.9
20260505090303 51 168 0.0 0.0 0.00 0.00 0.00 90 1011.8
20260505085805 51 167 0.0 0.0 0.00 0.00 0.00 90 1011.8
20260505084305 51 167 0.0 0.0 0.00 0.00 0.00 90 1011.8
20260505083803 51 167 0.0 0.0 0.00 0.00 0.00 89 1011.8
20260505082304 51 167 0.0 0.0 0.00 0.00 0.00 89 1011.9
20260505081804 52 167 0.0 0.0 0.00 0.00 0.00 89 1011.9
20260505081303 52 167 0.0 0.0 0.00 0.00 0.00 89 1011.9
20260505080804 52 167 0.0 0.0 0.00 0.00 0.00 88 1011.9
20260505080304 52 167 0.0 0.0 0.00 0.00 0.00 88 1011.9
20260505074304 53 167 0.0 0.0 0.00 0.00 0.00 85 1011.9
20260505073304 53 167 0.0 0.0 0.00 0.00 0.00 85 1011.8
20260505072804 53 167 0.0 0.0 0.00 0.00 0.00 85 1011.8
20260505071804 55 167 0.0 0.0 0.00 0.00 0.00 80 1011.6
20260505071305 55 167 0.0 0.0 0.00 0.00 0.00 80 1011.7
20260505063304 54 173 0.0 0.0 0.00 0.00 0.00 84 1011.5
20260505062804 55 173 0.0 0.0 0.00 0.00 0.00 84 1011.6
20260505062304 55 173 0.0 0.0 0.00 0.00 0.00 84 1011.5
20260505061804 55 173 0.0 0.0 0.00 0.00 0.00 83 1011.6
20260505060805 56 173 0.0 0.0 0.00 0.00 0.00 81 1011.6
20260505055804 55 148 0.0 0.0 0.00 0.00 0.00 83 1011.8
20260505054805 55 148 0.0 0.0 0.00 0.00 0.00 82 1011.7